Bennington, VT

2:42 PM EDT on October 23, 2019 (GMT -0400)
Morse State

Weather History for KDDH - August, 2019

Change the Weather History Date:

Monday, August 26, 2019

  Actual Average Record
Temperature  
Mean Temperature 60 °F 65 °F  
Max Temperature 77 °F 76 °F 86 °F (2012)
Min Temperature 43 °F 54 °F 42 °F (2017)
Degree Days  
Heating Degree Days 5 2  
Month to date heating degree days 24 32  
Since 1 June heating degree days 110 153  
Since 1 July heating degree days 25 56  
Cooling Degree Days 0 2  
Month to date cooling degree days 95 85  
Year to date cooling degree days 344 280  
Since 1 June cooling degree days 338 266  
Growing Degree Days 9 (Base 50)    
Moisture  
Dew Point 47 °F    
Average Humidity 65    
Maximum Humidity 96    
Minimum Humidity 33    
Precipitation  
Precipitation 0.00 in 0.12 in 0.45 in (2013)
Month to date precipitation 4.07 3.42  
Year to date precipitation 27.26 26.96  
Sea Level Pressure  
Sea Level Pressure 30.22 in    
Wind  
Wind Speed 3 mph (SE)    
Max Wind Speed 10 mph    
Max Gust Speed 15 mph    
Visibility 10 miles    
Events      
T = Trace of Precipitation, MM = Missing Value Source: NWS Daily Summary

Daily Weather History Graph

Daily Weather History Graph

Search for Another Location

Airport or City:

Astronomy

Aug. 26, 2019 Rise Set
Actual Time 6:10 AM EDT 7:38 PM EDT
Civil Twilight 5:41 AM EDT 8:07 PM EDT
Nautical Twilight 5:05 AM EDT 8:43 PM EDT
Astronomical Twilight 4:27 AM EDT 9:21 PM EDT
Moon 1:28 AM EDT (8/26) 5:04 PM EDT (8/26)
Length of Visible Light 14h 26m
Length of Day
13h 27m
Waning Crescent, 19% of the Moon is Illuminated
Aug 26
Waning Crescent
Aug 30
New
Sep 5
First Quarter
Sep 14
Full
Sep 21
Last Quarter

Hourly Weather History & Observations

Time (EDT) Temp. Windchill Dew Point Humidity Pressure Visibility Wind Dir Wind Speed Gust Speed Precip Events Conditions
12:54 AM 52.0 °F - 45.0 °F 77% 30.29 in 10.0 mi SSE 4.6 mph - N/A   Clear
1:54 AM 48.9 °F - 45.0 °F 86% 30.28 in 10.0 mi Calm Calm - N/A   Clear
2:54 AM 46.9 °F - 43.0 °F 86% 30.27 in 10.0 mi Calm Calm - N/A   Clear
3:54 AM 46.0 °F - 44.1 °F 93% 30.28 in 10.0 mi Calm Calm - N/A   Clear
4:54 AM 45.0 °F 43.5 °F 42.1 °F 90% 30.28 in 10.0 mi ESE 3.5 mph - N/A   Clear
5:54 AM 43.0 °F 41.3 °F 41.0 °F 93% 30.27 in 10.0 mi SSE 3.5 mph - N/A   Clear
6:54 AM 44.1 °F 42.5 °F 42.1 °F 93% 30.29 in 10.0 mi SE 3.5 mph - N/A   Clear
7:54 AM 54.0 °F - 48.0 °F 80% 30.29 in 10.0 mi Calm Calm - N/A   Clear
9:54 AM 64.0 °F - 48.9 °F 58% 30.27 in 10.0 mi North 3.5 mph - N/A   Clear
10:54 AM 68.0 °F - 48.9 °F 50% 30.25 in 10.0 mi NNW 3.5 mph - N/A   Clear
11:54 AM 71.1 °F - 42.1 °F 35% 30.24 in 10.0 mi ESE 5.8 mph - N/A   Clear
12:54 PM 73.0 °F - 43.0 °F 34% 30.22 in 10.0 mi SE 8.1 mph - N/A   Clear
1:54 PM 75.0 °F - 45.0 °F 34% 30.21 in 10.0 mi East 3.5 mph - N/A   Clear
2:54 PM 75.0 °F - 46.0 °F 36% 30.19 in 10.0 mi Variable 3.5 mph - N/A   Clear
3:54 PM 75.9 °F - 48.0 °F 37% 30.18 in 10.0 mi South 5.8 mph - N/A   Clear
4:54 PM 75.0 °F - 48.0 °F 38% 30.16 in 10.0 mi South 9.2 mph - N/A   Clear
5:54 PM 73.9 °F - 48.9 °F 41% 30.16 in 10.0 mi SSE 6.9 mph - N/A   Clear
6:54 PM 70.0 °F - 53.1 °F 55% 30.15 in 10.0 mi SSW 3.5 mph - N/A   Clear
7:54 PM 61.0 °F - 54.0 °F 78% 30.16 in 10.0 mi Calm Calm - N/A   Clear
8:54 PM 61.0 °F - 50.0 °F 67% 30.17 in 10.0 mi ESE 5.8 mph - N/A   Clear
9:54 PM 55.9 °F - 50.0 °F 80% 30.17 in 10.0 mi South 3.5 mph - N/A   Clear
10:54 PM 55.0 °F - 48.9 °F 80% 30.16 in 10.0 mi Calm Calm - N/A   Clear
11:54 PM 55.9 °F - 48.9 °F 77% 30.14 in 10.0 mi Calm Calm - N/A   Clear